Погода Hatgal

Погода Hatgal : погода сейчас, прогноз погоды и архив. Всё, что Вы хотите узнать о погоде Hatgal!

Поиск расширенной информации на нашем сайте:

Другие новости

Новости СМИ2

Главная страница сайта

Новости сайта

03.07.2017

Напоминаем, что на нашем специализированном сайте Метеоцентр.Азия вы можете получить высокодетализированные автоматические прогнозы погоды по пунктам России, СНГ и мира в авиационном формате (включающие направление и скорость ветра, видимость, явления погоды, количество и форму облачности, нижнюю и верхнюю границу облачности).


Погода Hatgal - сегодня

Время (UTC), дата Ветер
(°,м/с) 
Видим.   Явления Облачность Т
(°С)
Тd
(°С)
f(%) Тe
(°С)
Pmin
(гПа)
dP
(гПа)
Po
(мм)
O2
(г/м3)
Тmin Tmax R s Состояние
почвы
09 08.02.18 320 (СЗ) 20000 м    9/0 средняя, верхняя 
[Ac lent|Cs]
-17.8 -26.6 46 -25  1031.2  2.5             
12 08.02.18 320 (СЗ) н/о    10/0 средняя 
[Ac As]
-19.4 -27.4 49 -25  1034.9  1.8      -16.3       
15 08.02.18 320 (СЗ) н/о    10/0 средняя 
[Ac As]
-19.8 -27.2 52 -27  1037.7  1.9             
18 08.02.18 320 (СЗ) н/о    4/0 средняя 
[Ac cast]
-20.5 -28.5 49 -26  1040.1  1.4             
21 08.02.18 360 (С) н/о    ясно 
-21.2 -28.7 51 -24  1042.8  1.7             
00 09.02.18 320 (СЗ) н/о    3/0 верхняя 
[Ci]
-22.2 -29.4 52 -25  1044.5  0.6    -23      сухой снег
10-40% 
03 09.02.18 320 (СЗ) 20000 м    3/0 средняя 
[Ac trans]
-18.8 -26.4 51 -24  1042.3  0.7             
06 09.02.18 320 (СЗ) 20000 м    4/0 средняя, верхняя 
[Ac lent|Cc]
-16.4 -25.4 46 -23  1039.8  -0.2             
09 09.02.18 320 (СЗ) 20000 м    8/0 средняя, верхняя 
[Ac lent|Cs]
-17.6 -26.5 46 -26  1040.8  -0.1             
12 09.02.18 320 (СЗ) н/о    6/0 средняя, верхняя 
[Ac lent|Ci]
-19.8 -27.8 49 -23  1044.5  1.4      -15.8       
15 09.02.18 тихо ()   н/о    6/0 средняя, верхняя 
[Ac lent|Ci]
-20 -27.4 52 -20  1044.7             
18 09.02.18 тихо ()   н/о    ясно 
-22.7 -29.1 56 -23  1047.3             
09 22.02.18 360 (С) 20000 м    9/3 1000 м средняя, верхняя 
[Cu hum|Ac cast|Ci ing]
-8.7 -17 51 -12  1017  -0.3             
21 02.03.18 270 (З) н/о    ясно 
-20.8 -26.4 61 -24  1021.4  1.2             
18 13.03.18 050 (СВ) н/о  слаб. снег  10/0 средняя 
[As op]
-14.2 -19 67 -16  1037.6  1.1             
12 26.03.18 230 (ЮЗ) 8{14}  20000 м    10/0 средняя 
[Ac As]
+9.1 -0.6 51 +7  994.4  -1.3      +12.1       
12 30.03.18 250 (З) 20000 м    3/0 средняя, верхняя 
[Ac cast|Ci]
+4.8 -9.3 35 +3  1012.3  0.3      +10.3       
03 07.04.18 200 (Ю) 20000 м    8/0 средняя, верхняя 
[Ac lent|Cs]
+2.4 -10.4 38 1023.6  0.2             
09 14.04.18 230 (ЮЗ) 20000 м    3/0 средняя, верхняя 
[Ac lent|Ci fib]
+13.4 -6.4 25 +12  1007.5  -2.4             
18 22.04.18 тихо ()   н/о    ясно 
-3.6 -14.2 44 -4  1031.3             
21 06.05.18 360 (С) н/о    ясно 
+5.8 -3.9 50 +4  1006.3  1.4             
06 17.05.18 180 (Ю) 20000 м    3/3 1000 м 
[Cu med, cong]
+17 -5.4 21 +16  1004.3  -2.3             
15 21.05.18 320 (СЗ) н/о    6/6 1000 м 
[Cu med, cong]
-1.2 -9.7 52 -2  1025.7  -0.2             
15 14.06.18 320 (СЗ) н/о    8/3 1000 м средняя 
[Sc|Ac trans]
+7.2 +4.2 81 +7  1012.2  0.6             
12 05.07.18 тихо ()   4000 м  слаб. ливневой дождь  10/8 600 м кучево-дожд., средняя 
[Cb calv|Ac As]
+9.6 +6.8 83 +10  1010.3      +19.8     
Время (UTC), дата Ветер
(°,м/с) 
Видим.   Явления Облачность Т
(°С)
Тd
(°С)
f(%) Тe
(°С)
Pmin
(гПа)
dP
(гПа)
Po
(мм)
O2
(г/м3)
Тmin Tmax R s Состояние
почвы

Для получения пояснительной информации подведите курсор к названию столбца.

ПОГОДА Hatgal - архив

Всё, что Вы хотите узнать о погоде Hatgal - удобно и подробно!

Выберите нужную дату (начиная с 1 января 2015* года) и нажмите кнопку "Найти".
Будут отображены архивные сводки погоды по пункту Hatgal, начиная с указанной даты.


Отображать данные в формате CSV (для использования в таблицах Excel)


Внимание! Наш архив погоды предназначен исключительно для личного некоммерческого использования в познавательных целях. Если Вам необходимы официальные справки о состоянии погоды (для производственных, юридических, коммерческих и т.п. целей), обращайтесь в органы Росгидромета.

*Примечание: данная дата относится к архиву по метеостанциям СССР (Россия, СНГ, Балтия).
Архив по метеостанциям Зарубежной Европы и Азии (кроме Китая) хранится 10 дней, по другим регионам земного шара (Китай, Африка, Америка, Австралия, Океания) - 1 день.

Hatgal - район местоположения метеостанции


Название, широта, долгота, высота метеостанции:
Hatgal 50.4°ш. 100.2°д. 1668 м над ур. моря [Mongolia]

Дополнительная информация

В oтличие oт бoльшинства пoгoдных сайтoв мы публикуем пoдрoбную метеoинфoрмацию в детальнoм прoфессиoнальнoм фoрмате.

Характеристики температуры и влажнoсти вoздуха измеряются на высoте 2 м в тени вдали oт зданий и деревьев.
Скoрoсть ветра измеряется на высoте 10 м (на урoвне рoста челoвека скoрoсть ветра ниже в 1.5-2 раза). Если метеoстанция нахoдится в гoрoде или в лесу, тo скoрoсть ветра занижена на 2-4 м/с пo сравнению с oткрытым местoм. Скoрoсть ветра над акватoриями крупных рек и oзёр, а также на вершинах хoлмoв на 2-5 м/с выше, чем в oбычных услoвиях.
Атмoсфернoе давление в разных тoчках местнoсти мoжет значительнo oтличаться oт давления на метеoстанции, в зависимoсти oт услoвий рельефа (при пoдъёме на 10 м давление пoнижается примернo на 1 мм рт.ст.).